STARLINK AV

Last updated on Sat Jul 15 2023 00:02:05 GMT+0000 (Coordinated Universal Time)

1 57261U 23094AV 23195.75001157 -.01071300 34132-3 -30818-2 0 9997 2 57261 42.9949 276.0567 0025903 199.7638 238.6396 15.91581565 1302

Satellite not in orbit